Location: Croagnes
(43.9363°N, 5.3265°E)
Time: 18:59:26
(UTC+00:00)

Meteor 1-16 Rocket - Pass Details

Date: 06 June 2020
Orbit: 789 x 908 km, 81.2° (Epoch: 10 July)

Event Time Altitude Azimuth Distance (km) Brightness Sun altitude
Rises 22:05:59 0° 350° (N) 3,366 8.8 -20.1°
Reaches altitude 10° 22:08:25 10° 351° (N) 2,414 7.7 -20.2°
Maximum altitude 22:13:52 81° 79° (E) 815 4.0 -20.6°
Enters shadow 22:15:39 44° 161° (SSE) 1,098 4.3 -20.7°
